Home   Weather   Ra'anana   Past weeks

Flag for Israel Past Weather in Ra'anana, Israel — Yesterday and Last 2 Weeks

Now
63 °F

Passing clouds.


Feels Like: 63 °F
Forecast: 58 / 77 °F
Wind: 2 mph from North

Location: Dov Airport

Current Time: Apr 28, 2017 at 7:34:57 am

Latest Report: Apr 28, 2017 at 6:50 am


Visibility: N/A

Pressure: 29.98 "Hg

Humidity: 83%

Dew Point: 57 °F

Location of Ra'ananaLocation

Past Weather in Ra'anana — Graph

°F

Ra'anana Temperature Yesterday

Maximum temperature yesterday: 73 °F (at 2:50 pm)
Minimum temperature yesterday: 64 °F (at 5:30 am)
Average temperature yesterday: 69 °F

High & Low Weather Summary for the Past Weeks

 TemperatureHumidityPressure
High88 °F (Apr 22, 2:50 pm)88% (Apr 17, 6:00 am)30.12 "Hg (Apr 17, 6:00 am)
Low57 °F (Apr 17, 6:00 am)22% (Apr 22, 10:50 am)29.65 "Hg (Apr 22, 4:50 pm)
Average68 °F65%29.98 "Hg
* Reported Apr 13 5:30 am — Apr 28 5:50 am, Ra'anana, Weather by CustomWeather, © 2017

Note: Actual official high and low records may vary slightly from our data, if they occured in-between our weather recording intervals... More about our weather records

Advertising

Ra'anana Weather History for the Previous 24 Hours

Scroll right to see more
 ConditionsComfort  
Time TempWeatherWind HumidityBarometerVisibility
5:50 am
Fri, Apr 28
61 °FPassing clouds.3 mph88%29.95 "HgN/A
5:00 am61 °FClear.5 mph88%29.95 "Hg10 mi
11:50 pm
Thu, Apr 27
66 °FClear.6 mph83%29.98 "Hg10 mi
10:50 pm66 °FClear.5 mph73%29.98 "Hg10 mi
9:50 pm66 °FClear.5 mph73%29.98 "Hg10 mi
8:50 pm66 °FClear.3 mph73%29.98 "Hg10 mi
7:50 pm68 °FClear.5 mph73%29.95 "Hg10 mi
6:50 pm68 °FSunny.3 mph69%29.95 "Hg10 mi
5:50 pm70 °FSunny.7 mph69%29.95 "Hg10 mi
4:50 pm72 °FSunny.10 mph65%29.95 "Hg10 mi
3:50 pm72 °FSunny.10 mph65%29.95 "Hg10 mi
2:50 pm73 °FSunny.10 mph65%29.95 "Hg10 mi
1:50 pm72 °FSunny.12 mph69%29.95 "Hg10 mi
12:50 pm72 °FSunny.12 mph65%29.98 "Hg10 mi
11:50 am72 °FSunny.16 mph69%29.98 "Hg10 mi
10:50 am72 °FSunny.13 mph65%29.98 "Hg10 mi
9:50 am70 °FSunny.12 mph69%29.95 "Hg10 mi
8:50 am70 °FPassing clouds.8 mph73%29.95 "HgN/A
7:50 am66 °FSunny.5 mph83%29.95 "Hg10 mi
Weather by CustomWeather, © 2017

See weather overviewHow to use our weather pages